Terminal Aerodrome Forecast
Issued by NWS

Home | Current Version | Previous Version | Text Only | Print | Product List | Glossary On
Versions: 1 2 3 4 5 6 7 8 9 10 11 12 13 14 15 16 17
781
FTPA31 PHFO 281741
TAFHOG
TAF
PHOG 281741Z 2818/0118 07010G15KT P6SM VCSH SCT025 BKN045 OVC100
     FM010300 07008KT 5SM SHRA BR VCTS SCT020CB BKN030 OVC050
      AMD LTD TO VIS AND WIND 0109/0116=

USA.gov is the U.S. government's official web portal to all federal, state and local government web resources and services.